Location: Eymir
(36.7333°N, 29.7833°E)
Time: 17:59:25
(UTC+00:00)

Atlas Centaur 2 - Pass Details

Date: 14 January 2026
Orbit: 456 x 1249 km, 30.4° (Epoch: 17 February)

Event Time Altitude Azimuth Distance (km) Brightness Sun altitude
Exits shadow 02:46:39 17° 185° (S) 1,927 4.0 -28.8°
Maximum altitude 02:49:03 22° 152° (SSE) 1,788 4.2 -28.4°
Drops below altitude 10° 02:53:59 10° 104° (ESE) 2,743 5.8 -27.4°
Sets 02:57:32 0° 91° (E) 3,842 6.9 -26.7°
